Weather History for Crane Lake, MN

Change the Weather History Date:

Sunday, December 2, 2012

  Actual Average Record
Temperature  
Mean Temperature 32 °F -  
Max Temperature 35 °F 26 °F 39 °F (1999)
Min Temperature 30 °F 12 °F -7 °F (2002)
Degree Days  
Heating Degree Days 32    
Moisture  
Dew Point 32 °F    
Average Humidity 97    
Maximum Humidity 100    
Minimum Humidity 93    
Precipitation  
Precipitation 0.00 in - - ()
Sea Level Pressure  
Sea Level Pressure 29.84 in    
Wind  
Wind Speed 2 mph (SSE)    
Max Wind Speed 9 mph    
Max Gust Speed 17 mph    
Visibility 3 miles    
Events Fog    
Averages and records for this station are not official NWS values.
T = Trace of Precipitation, MM = Missing Value Source: NWS Daily Summary

Daily Weather History Graph

Daily Weather History Graph

Search for Another Location

Airport:

Trip Planner

Search our weather history database for the weather conditions in past years. The results will help you decide how hot, cold, wet, or windy it might be!

Date:

Astronomy

Dec. 02, 2012 Rise Set
Actual Time 7:41 AM CST 4:17 PM CST
Civil Twilight 7:05 AM CST 4:53 PM CST
Nautical Twilight 6:26 AM CST 5:32 PM CST
Astronomical Twilight 5:48 AM CST 6:10 PM CST
Moon 8:13 PM CST (12/2) 10:24 AM CST (12/2)
Length of Visible Light 9h 47m
Length of Day
8h 35m
Waning Gibbous, 85% of the Moon is Illuminated
Dec 2
Waning Gibbous
Dec 6
Last Quarter
Dec 13
New
Dec 19
First Quarter
Dec 28
Full

Hourly Weather History & Observations

Time (CST) Temp. Windchill Dew Point Humidity Pressure Visibility Wind Dir Wind Speed Gust Speed Precip Events Conditions
12:05 AM 30.2 °F - 30.2 °F 100% 29.83 in 1.5 mi Calm Calm - N/A   Overcast
12:25 AM 30.2 °F - 30.2 °F 100% 29.83 in 1.2 mi Calm Calm - N/A   Overcast
12:45 AM 30.2 °F - 30.2 °F 100% 29.83 in 1.2 mi Calm Calm - N/A   Overcast
1:05 AM 30.2 °F - 30.2 °F 100% 29.83 in 1.2 mi Calm Calm - N/A   Overcast
1:45 AM 32.0 °F - 30.2 °F 93% 29.85 in 0.8 mi Calm Calm - N/A   Overcast
2:05 AM 32.0 °F - 30.2 °F 93% 29.85 in 0.5 mi Calm Calm - N/A Fog Fog
2:25 AM 32.0 °F - 30.2 °F 93% 29.86 in 0.5 mi Calm Calm - N/A Fog Fog
2:45 AM 32.0 °F - 30.2 °F 93% 29.87 in 0.5 mi Calm Calm - N/A Fog Fog
3:05 AM 32.0 °F - 30.2 °F 93% 29.86 in 0.5 mi Calm Calm - N/A Fog Fog
3:25 AM 32.0 °F - 30.2 °F 93% 29.87 in 0.5 mi Calm Calm - N/A Fog Fog
3:45 AM 32.0 °F - 30.2 °F 93% 29.87 in 0.8 mi Calm Calm - N/A   Overcast
4:05 AM 32.0 °F - 30.2 °F 93% 29.88 in 0.8 mi Calm Calm - N/A   Overcast
4:45 AM 32.0 °F - 30.2 °F 93% 29.89 in 1.2 mi Calm Calm - N/A   Overcast
5:05 AM 32.0 °F - 30.2 °F 93% 29.88 in 1.0 mi Calm Calm - N/A   Overcast
5:25 AM 32.0 °F - 30.2 °F 93% 29.89 in 1.0 mi Calm Calm - N/A   Overcast
5:45 AM 32.0 °F - 30.2 °F 93% 29.89 in 1.0 mi Calm Calm - N/A   Overcast
6:05 AM 30.2 °F - 30.2 °F 100% 29.90 in 0.5 mi Calm Calm - N/A Fog Light Freezing Fog
6:25 AM 30.2 °F - 30.2 °F 100% 29.91 in 0.5 mi Calm Calm - N/A Fog Light Freezing Fog
6:45 AM 30.2 °F - 30.2 °F 100% 29.91 in 0.8 mi Calm Calm - N/A   Overcast
7:05 AM 30.2 °F - 30.2 °F 100% 29.91 in 1.2 mi Calm Calm - N/A   Overcast
7:25 AM 30.2 °F - 30.2 °F 100% 29.91 in 0.5 mi Calm Calm - N/A Fog Light Freezing Fog
7:45 AM 30.2 °F - 30.2 °F 100% 29.91 in 0.8 mi Calm Calm - N/A   Overcast
8:05 AM 30.2 °F - 30.2 °F 100% 29.92 in 0.8 mi Calm Calm - N/A   Overcast
8:25 AM 30.2 °F - 30.2 °F 100% 29.92 in 0.8 mi Calm Calm - N/A   Overcast
8:45 AM 32.0 °F - 30.2 °F 93% 29.94 in 1.2 mi Calm Calm - N/A   Overcast
9:05 AM 32.0 °F - 30.2 °F 93% 29.93 in 1.5 mi Calm Calm - N/A   Overcast
9:25 AM 32.0 °F - 32.0 °F 100% 29.92 in 1.5 mi Calm Calm - N/A   Overcast
9:45 AM 33.8 °F - 32.0 °F 93% 29.91 in 1.5 mi Calm Calm - N/A   Overcast
10:05 AM 33.8 °F 30.8 °F 32.0 °F 93% 29.92 in 2.0 mi South 3.5 mph - N/A   Overcast
10:25 AM 33.8 °F 30.8 °F 33.8 °F 100% 29.91 in 2.5 mi SSE 3.5 mph - N/A   Overcast
10:45 AM 33.8 °F 30.8 °F 33.8 °F 100% 29.91 in 4.0 mi SSE 3.5 mph - N/A   Overcast
11:05 AM 33.8 °F 29.6 °F 33.8 °F 100% 29.90 in 5.0 mi SSE 4.6 mph - N/A   Overcast
11:25 AM 33.8 °F 28.6 °F 33.8 °F 100% 29.90 in 5.0 mi South 5.8 mph - N/A   Overcast
11:45 AM 33.8 °F 29.6 °F 33.8 °F 100% 29.89 in 5.0 mi South 4.6 mph - N/A   Overcast
12:05 PM 33.8 °F 28.6 °F 33.8 °F 100% 29.88 in 4.0 mi SSE 5.8 mph - N/A   Overcast
12:25 PM 33.8 °F 29.6 °F 33.8 °F 100% 29.89 in 4.0 mi South 4.6 mph - N/A   Overcast
12:45 PM 33.8 °F 29.6 °F 33.8 °F 100% 29.89 in 3.0 mi South 4.6 mph - N/A   Overcast
1:05 PM 33.8 °F 28.6 °F 33.8 °F 100% 29.88 in 3.0 mi South 5.8 mph - N/A   Overcast
1:25 PM 33.8 °F 30.8 °F 33.8 °F 100% 29.87 in 3.0 mi SSE 3.5 mph - N/A   Overcast
1:45 PM 33.8 °F 28.6 °F 33.8 °F 100% 29.87 in 3.0 mi South 5.8 mph - N/A   Overcast
2:05 PM 33.8 °F 27.0 °F 33.8 °F 100% 29.86 in 3.0 mi SSE 8.1 mph - N/A   Overcast
2:25 PM 33.8 °F 30.8 °F 33.8 °F 100% 29.85 in 2.5 mi SSE 3.5 mph - N/A   Overcast
2:45 PM 33.8 °F 29.6 °F 33.8 °F 100% 29.85 in 3.0 mi SSE 4.6 mph - N/A   Overcast
3:05 PM 33.8 °F 27.7 °F 33.8 °F 100% 29.85 in 3.0 mi SSE 6.9 mph - N/A   Overcast
3:25 PM 33.8 °F 28.6 °F 33.8 °F 100% 29.84 in 3.0 mi SSE 5.8 mph - N/A   Overcast
3:45 PM 33.8 °F 28.6 °F 32.0 °F 93% 29.85 in 3.0 mi South 5.8 mph - N/A   Overcast
4:05 PM 33.8 °F 29.6 °F 32.0 °F 93% 29.84 in 3.0 mi SSE 4.6 mph - N/A   Overcast
4:25 PM 33.8 °F 29.6 °F 32.0 °F 93% 29.82 in 2.5 mi SSE 4.6 mph - N/A   Overcast
4:45 PM 33.8 °F 30.8 °F 32.0 °F 93% 29.82 in 2.5 mi SSE 3.5 mph - N/A   Overcast
5:05 PM 33.8 °F 28.6 °F 32.0 °F 93% 29.81 in 2.5 mi SSE 5.8 mph - N/A   Overcast
5:25 PM 33.8 °F 27.7 °F 32.0 °F 93% 29.81 in 2.0 mi SSE 6.9 mph - N/A   Overcast
5:45 PM 33.8 °F 28.6 °F 32.0 °F 93% 29.81 in 2.0 mi SSE 5.8 mph - N/A   Overcast
6:05 PM 33.8 °F 28.6 °F 32.0 °F 93% 29.81 in 2.5 mi SSE 5.8 mph - N/A   Overcast
6:25 PM 33.8 °F 27.0 °F 33.8 °F 100% 29.81 in 2.5 mi SSE 8.1 mph - N/A   Overcast
6:45 PM 33.8 °F 30.8 °F 33.8 °F 100% 29.80 in 2.5 mi SSE 3.5 mph - N/A   Overcast
7:05 PM 33.8 °F 28.6 °F 33.8 °F 100% 29.79 in 3.0 mi SSE 5.8 mph - N/A   Overcast
7:25 PM 33.8 °F 28.6 °F 33.8 °F 100% 29.79 in 3.0 mi SSE 5.8 mph - N/A   Overcast
7:45 PM 33.8 °F 28.6 °F 33.8 °F 100% 29.77 in 3.0 mi SE 5.8 mph - N/A   Overcast
8:05 PM 33.8 °F 29.6 °F 33.8 °F 100% 29.76 in 4.0 mi SSE 4.6 mph - N/A   Overcast
8:25 PM 33.8 °F 28.6 °F 33.8 °F 100% 29.75 in 4.0 mi SSE 5.8 mph - N/A   Overcast
8:45 PM 33.8 °F 29.6 °F 33.8 °F 100% 29.74 in 4.0 mi SE 4.6 mph - N/A   Overcast
9:05 PM 33.8 °F 30.8 °F 33.8 °F 100% 29.73 in 5.0 mi SSE 3.5 mph - N/A   Overcast
9:25 PM 33.8 °F 30.8 °F 33.8 °F 100% 29.73 in 5.0 mi SSE 3.5 mph - N/A   Overcast
9:45 PM 33.8 °F 28.6 °F 33.8 °F 100% 29.73 in 5.0 mi SSE 5.8 mph - N/A   Overcast
10:05 PM 35.6 °F 32.8 °F 33.8 °F 93% 29.72 in 7.0 mi SSE 3.5 mph - N/A   Overcast
10:25 PM 35.6 °F 29.9 °F 33.8 °F 93% 29.71 in 7.0 mi South 6.9 mph - N/A   Mostly Cloudy
10:45 PM 35.6 °F 29.9 °F 33.8 °F 93% 29.70 in 7.0 mi South 6.9 mph - N/A   Scattered Clouds
11:05 PM 35.6 °F 28.6 °F 33.8 °F 93% 29.69 in 10.0 mi SSE 9.2 mph - N/A   Clear
11:25 PM 35.6 °F 29.9 °F 35.6 °F 100% 29.68 in 10.0 mi SSE 6.9 mph 17.3 mph N/A   Clear
11:45 PM 35.6 °F 28.6 °F 35.6 °F 100% 29.68 in 10.0 mi SSE 9.2 mph - N/A   Clear